DW1024 Weather Reports


Display with metric or nautical units.
time (UTC)temp
F
wind
direction
speed
MPH
gust
MPH
rain 1hr
in
rain 24hr
in
rain mn
in
humidity
%
barometer
mb
20260906153330 76 65 4.0 10.0 0.00 0.00 0.00 39 1026.1
20260906151827 76 165 3.0 9.0 0.00 0.00 0.00 39 1026.1
20260906144823 77 132 2.0 7.0 0.00 0.00 0.00 38 1026.4
20260906141821 77 69 3.0 8.0 0.00 0.00 0.00 41 1026.6
20260906140312 77 83 3.0 7.0 0.00 0.00 0.00 42 1026.6
20260906134813 78 133 2.0 9.0 0.00 0.00 0.00 40 1026.7
20260906133128 78 51 2.0 10.0 0.00 0.00 0.00 41 1026.9
20260906130313 76 135 2.0 8.0 0.00 0.00 0.00 42 1026.9
20260906124810 76 31 2.0 6.0 0.00 0.00 0.00 43 1026.9
20260906123311 77 292 2.0 8.0 0.00 0.00 0.00 44 1026.9
20260906121810 75 351 3.0 10.0 0.00 0.00 0.00 45 1027.2
20260906120310 74 67 2.0 7.0 0.00 0.00 0.00 47 1027.2
20260906114810 74 24 2.0 9.0 0.00 0.00 0.00 47 1027.4
20260906113311 74 44 2.0 6.0 0.00 0.00 0.00 47 1027.6
20260906111814 74 16 2.0 8.0 0.00 0.00 0.00 48 1027.9
20260906104811 74 302 2.0 6.0 0.00 0.00 0.00 52 1028.1
20260906103315 73 70 2.0 8.0 0.00 0.00 0.00 50 1028.2
20260906094810 72 296 1.0 6.0 0.00 0.00 0.00 55 1028.6
20260906093311 70 318 2.0 8.0 0.00 0.00 0.00 54 1028.8
20260906091815 70 15 2.0 6.0 0.00 0.01 0.00 56 1028.9
20260906090310 69 350 2.0 6.0 0.00 0.01 0.00 57 1028.9
20260906084810 68 59 2.0 5.0 0.00 0.01 0.00 58 1028.9
20260906083310 69 188 1.0 6.0 0.00 0.01 0.00 59 1028.9
20260906081811 67 83 1.0 5.0 0.00 0.01 0.00 60 1028.9
20260906080312 65 69 1.0 5.0 0.00 0.01 0.00 61 1028.8
20260906074814 65 30 1.0 5.0 0.00 0.01 0.00 63 1028.8
20260906073315 64 55 1.0 4.0 0.00 0.01 0.00 68 1028.7
20260906071811 62 36 2.0 5.0 0.00 0.01 0.00 72 1028.7
20260906070312 60 51 1.0 4.0 0.00 0.01 0.00 81 1028.7
20260906064814 57 44 0.0 1.0 0.00 0.01 0.00 94 1028.7
20260906063313 55 44 0.0 1.0 0.00 0.01 0.00 96 1028.7
20260906061814 54 44 0.0 0.0 0.00 0.01 0.00 97 1028.6
20260906060314 53 44 0.0 0.0 0.00 0.02 0.00 97 1028.7
20260906054816 53 44 0.0 0.0 0.00 0.05 0.00 97 1028.4
20260906053313 52 44 0.0 0.0 0.00 0.05 0.00 97 1028.3
20260906051814 51 44 0.0 0.0 0.00 0.05 0.00 96 1028.4
20260906050326 51 44 0.0 0.0 0.00 0.06 0.00 96 1028.4
20260906044810 51 44 0.0 0.0 0.00 0.06 0.00 96 1028.3
20260906043311 52 44 0.0 0.0 0.00 0.08 0.00 96 1028.2
20260906041811 52 44 0.0 0.0 0.00 0.17 0.00 97 1028.2
20260906040311 51 44 0.0 0.0 0.00 0.17 0.00 96 1028.1
20260906034812 51 44 0.0 0.0 0.00 0.17 0.00 96 1027.9
20260906033311 51 44 0.0 0.0 0.00 0.17 0.00 96 1027.9
20260906031812 52 44 0.0 0.0 0.00 0.17 0.00 96 1027.9
20260906030312 52 44 0.0 0.0 0.00 0.17 0.00 96 1027.8
20260906024812 53 44 0.0 0.0 0.00 0.17 0.00 96 1027.5
20260906023311 53 44 0.0 0.0 0.00 0.17 0.00 96 1027.6
20260906020314 54 44 0.0 0.0 0.00 0.17 0.00 96 1027.6
20260906014814 55 44 0.0 0.0 0.00 0.17 0.00 96 1027.6
20260906011810 55 44 0.0 0.0 0.00 0.17 0.00 96 1027.6
20260906010315 54 44 0.0 0.0 0.00 0.17 0.00 95 1027.6
20260906004816 54 44 0.0 0.0 0.00 0.17 0.00 95 1027.5
20260906003311 55 44 0.0 0.0 0.00 0.17 0.00 95 1027.5
20260906001811 55 44 0.0 0.0 0.00 0.17 0.00 94 1027.5
20260906000312 56 44 0.0 2.0 0.00 0.17 0.00 95 1027.5
20260905234813 55 19 0.0 3.0 0.00 0.17 0.00 94 1027.5
20260905233307 56 268 0.0 0.0 0.00 0.17 0.00 94 1027.2
20260905230310 57 268 0.0 0.0 0.00 0.17 0.00 94 1027.2
20260905224808 56 268 0.0 0.0 0.00 0.17 0.00 93 1027.2
20260905223309 57 268 0.0 0.0 0.00 0.17 0.00 92 1027.0
20260905220303 58 268 0.0 1.0 0.00 0.17 0.00 92 1027.1
20260905214809 59 268 0.0 1.0 0.00 0.17 0.17 92 1027.1
20260905213303 58 268 0.0 0.0 0.00 0.17 0.17 91 1026.9
20260905211805 59 268 0.0 1.0 0.00 0.17 0.17 91 1027.0
20260905210306 60 268 0.0 1.0 0.00 0.17 0.17 90 1026.8
20260905204804 60 268 0.0 0.0 0.00 0.17 0.17 89 1026.7
20260905203308 61 268 0.0 1.0 0.00 0.17 0.17 87 1026.7
20260905201801 62 268 0.0 2.0 0.00 0.17 0.17 85 1026.6
20260905200302 63 268 0.0 2.0 0.00 0.17 0.17 84 1026.4
20260905193302 64 269 0.0 4.0 0.00 0.17 0.17 82 1026.2
20260905191803 65 271 1.0 5.0 0.00 0.17 0.17 81 1026.0
20260905184803 67 306 1.0 6.0 0.00 0.17 0.17 82 1025.4
20260905183311 67 263 2.0 7.0 0.00 0.17 0.17 84 1025.2
20260905181802 68 231 1.0 5.0 0.00 0.17 0.17 84 1025.0
20260905180303 68 214 1.0 6.0 0.00 0.17 0.17 84 1024.8
20260905174801 68 267 2.0 6.0 0.00 0.17 0.17 83 1024.5
20260905173309 69 270 1.0 6.0 0.00 0.17 0.17 82 1024.4
20260905171802 70 219 2.0 8.0 0.00 0.17 0.17 79 1024.3
20260905170301 71 238 2.0 6.0 0.00 0.17 0.17 72 1024.3
20260905164801 72 248 2.0 7.0 0.00 0.17 0.17 71 1024.2
20260905163306 72 220 2.0 7.0 0.00 0.17 0.17 73 1024.2
20260905161803 72 193 3.0 8.0 0.00 0.17 0.17 72 1024.2
20260905160302 73 213 3.0 9.0 0.00 0.17 0.17 71 1024.2